TimeEDT,TemperatureF,Dew PointF,Humidity,Sea Level PressureIn,VisibilityMPH,Wind Direction,Wind SpeedMPH,Gust SpeedMPH,PrecipitationIn,Events,Conditions,WindDirDegrees,DateUTC
12:53 AM,75.9,68.0,76,29.94,9.0,SW,10.4,-,0.00,Rain,Light Rain,220,2013-06-25 04:53:00
1:53 AM,75.0,64.0,69,29.93,10.0,SSW,10.4,-,0.00,,Overcast,210,2013-06-25 05:53:00
2:53 AM,73.0,64.0,73,29.92,10.0,SW,8.1,-,N/A,,Mostly Cloudy,220,2013-06-25 06:53:00
3:53 AM,71.1,63.0,75,29.93,10.0,SW,16.1,-,N/A,,Mostly Cloudy,230,2013-06-25 07:53:00
4:53 AM,70.0,63.0,78,29.94,10.0,SW,12.7,-,N/A,,Mostly Cloudy,230,2013-06-25 08:53:00
5:53 AM,70.0,63.0,78,29.95,10.0,SW,9.2,-,N/A,,Overcast,230,2013-06-25 09:53:00
6:53 AM,70.0,64.0,81,29.96,10.0,SSW,9.2,-,N/A,,Overcast,210,2013-06-25 10:53:00
7:53 AM,70.0,64.0,81,29.99,10.0,West,8.1,-,0.00,Rain,Light Rain,260,2013-06-25 11:53:00
8:06 AM,69.8,66.2,88,30.01,3.0,West,16.1,26.5,0.01,Rain-Thunderstorm,Thunderstorms and Rain,260,2013-06-25 12:06:00
8:16 AM,69.8,66.2,88,30.02,2.0,West,20.7,29.9,0.03,Rain-Thunderstorm,Thunderstorms and Rain,260,2013-06-25 12:16:00
8:45 AM,69.8,66.2,88,29.94,5.0,Calm,Calm,-,0.08,Rain-Thunderstorm,Thunderstorms and Rain,0,2013-06-25 12:45:00
8:53 AM,69.1,66.0,90,29.96,5.0,South,11.5,-,0.09,Rain-Thunderstorm,Thunderstorms and Rain,170,2013-06-25 12:53:00
9:13 AM,69.8,66.2,88,29.97,10.0,SSW,9.2,-,0.00,Rain,Light Rain,200,2013-06-25 13:13:00
9:53 AM,70.0,66.0,87,29.97,10.0,WSW,8.1,-,0.00,,Overcast,250,2013-06-25 13:53:00
10:53 AM,70.0,66.0,87,29.91,10.0,South,8.1,-,N/A,,Overcast,170,2013-06-25 14:53:00
11:53 AM,73.0,68.0,84,29.94,10.0,WSW,9.2,-,N/A,,Overcast,240,2013-06-25 15:53:00
12:53 PM,79.0,68.0,69,29.94,10.0,SSW,17.3,-,N/A,,Overcast,210,2013-06-25 16:53:00
1:28 PM,77.0,68.0,74,29.94,6.0,SW,11.5,-,0.01,Rain-Thunderstorm,Light Thunderstorms and Rain,230,2013-06-25 17:28:00
1:53 PM,79.0,71.1,77,29.92,10.0,SW,10.4,-,0.06,Thunderstorm,Thunderstorm,230,2013-06-25 17:53:00
2:00 PM,80.6,71.6,74,29.93,10.0,SW,9.2,-,N/A,,Mostly Cloudy,230,2013-06-25 18:00:00
2:53 PM,81.0,70.0,69,29.90,10.0,SSW,12.7,-,N/A,,Mostly Cloudy,210,2013-06-25 18:53:00
3:53 PM,84.0,71.1,65,29.83,10.0,SSW,12.7,21.9,N/A,,Scattered Clouds,200,2013-06-25 19:53:00
4:53 PM,86.0,71.1,61,29.87,9.0,WSW,11.5,-,N/A,,Mostly Cloudy,240,2013-06-25 20:53:00
5:53 PM,86.0,69.1,57,29.84,10.0,West,13.8,-,N/A,,Mostly Cloudy,260,2013-06-25 21:53:00
6:53 PM,84.9,69.1,59,29.83,10.0,WNW,10.4,-,N/A,,Scattered Clouds,300,2013-06-25 22:53:00
7:53 PM,82.0,68.0,62,29.84,10.0,NW,9.2,-,N/A,,Mostly Cloudy,320,2013-06-25 23:53:00
8:53 PM,81.0,68.0,65,29.83,10.0,North,6.9,-,N/A,,Overcast,350,2013-06-26 00:53:00
9:23 PM,80.6,68.0,65,29.85,10.0,NNW,6.9,-,0.00,Rain-Thunderstorm,Light Thunderstorms and Rain,340,2013-06-26 01:23:00
9:53 PM,77.0,70.0,79,29.85,10.0,North,3.5,-,0.02,Rain-Thunderstorm,Light Thunderstorms and Rain,350,2013-06-26 01:53:00
10:53 PM,75.0,71.1,87,29.87,5.0,West,4.6,-,0.08,Rain-Thunderstorm,Thunderstorms and Rain,260,2013-06-26 02:53:00
11:53 PM,73.9,72.0,93,29.91,4.0,SW,11.5,-,0.15,Rain-Thunderstorm,Thunderstorms and Rain,220,2013-06-26 03:53:00